Deer Park, AL (36529)

6:43 PM CST on February 14, 2016 (GMT -0600)
York Hill Gulfcrest, Alabama | | Change Station
CLOSE
Current Station
Personal Weather Station
Location: Chunchula, AL
Elevation: 190 ft
Nearby Weather Stations

Elev 190 ft 30.99 °N, 88.24 °W | Updated 9 minutes ago

Overcast
Overcast
56.1 °F
Feels Like 56.1 °F
N
2.7
Wind Variable Wind from SSE

Today
High -- | Low -- °F
--% Chance of Precip.
Yesterday
High -- | Low -- °F
Precip. -- in
Pressure 30.14 in
Visibility 10.0 miles
Clouds Mostly Cloudy 2500 ft
Overcast 3500 ft
Dew Point 49 °F
Humidity 78%
Rainfall 0.00 in
Snow Depth Not available.
6:35 AM 5:39 PM
Waxing Crescent, 47% visible
METAR KMOB 142356Z 11012KT 10SM BKN025 OVC035 14/10 A3014 RMK AO2 SLP204 T01390100 10172 20139 58012
Pressure 30.14 in
Visibility 10.0 miles
Clouds Mostly Cloudy 2500 ft
Overcast 3500 ft
Dew Point 49 °F
Humidity 78%
Rainfall 0.00 in
Snow Depth Not available.
6:35 AM 5:39 PM
Waxing Crescent, 47% visible
METAR KMOB 142356Z 11012KT 10SM BKN025 OVC035 14/10 A3014 RMK AO2 SLP204 T01390100 10172 20139 58012

10-Day Weather Forecast

Almanac

Astronomy

Feb. 14, 2016 Rise Set
Actual Time
Civil Twilight
Nautical Twilight
Astronomical Twilight
Moon
Length of Visible Light
Length of Day
Tomorrow will be .
, % of the Moon is Illuminated

Today's Extremes

State Highs State Lows

Community

WunderPhotos

Upload Photos

1,892,952 photos uploaded!

WunderBlog® & News

Nearby

Air Quality

  Air Quality AQ Index Pollutant
Not available.

Snow Depth

Station Depth Elevation

Earthquake Activity

City Distance Mag. Time & Date
Minimum magnitude displayed is 2.5.

Coastal Water Temperatures

Place Temperature

Stations

Nearby Weather Stations

Station Location Temp. Windchill Dew Point Humidity Wind Precip. Elev Updated Type
                   

Watches & Warnings

There are currently no watches in effect.